XM-5

Last updated on Sat Dec 13 2025 00:02:47 GMT+0000 (Coordinated Universal Time)

1 37185U 10053A 25346.15739279 -.00000014 00000+0 00000+0 0 9990 2 37185 0.0596 272.3532 0001561 236.8409 233.3792 1.00272664 55608
UTC large
Height (km)
Speed (km/s)
/
Latitude / Longitude
Inclination (degrees)
Orbital Period (minutes)
Azimuth
Elevation
Range (km)
Doppler Factor

Next 0 passes for location: London (51.5072 / 0.1276)

Sorry there are no passes over London.